Wenatchee, WA

9:50 PM PDT on October 16, 2017 (GMT -0700)
Pangborn Memorial

Weather History for KEAT - March, 2013

Change the Weather History Date:

Monday, March 4, 2013

  Actual Average Record
Temperature  
Mean Temperature 33 °F 35 °F  
Max Temperature 43 °F 44 °F 61 °F (2005)
Min Temperature 22 °F 26 °F 6 °F (1960)
Degree Days  
Heating Degree Days 32 30  
Month to date heating degree days 97 121  
Since 1 July heating degree days 4960 5320  
Cooling Degree Days 0 0  
Month to date cooling degree days 0 0  
Year to date cooling degree days 0 0  
Moisture  
Dew Point 19 °F    
Average Humidity 49    
Maximum Humidity 67    
Minimum Humidity 28    
Precipitation  
Precipitation 0.00 in 0.06 in 0.25 in (1996)
Month to date precipitation T 0.21  
Year to date precipitation 2.15 3.54  
Snow  
Snow 0.00 in 0.20 in - ()
Month to date snowfall T 0.7  
Since 1 July snowfall 47.2 47.1  
Snow Depth 0.00 in    
Sea Level Pressure  
Sea Level Pressure 30.22 in    
Wind  
Wind Speed 7 mph (West)    
Max Wind Speed 12 mph    
Max Gust Speed 18 mph    
Visibility 10 miles    
Events      
T = Trace of Precipitation, MM = Missing Value Source: NWS Daily Summary

Daily Weather History Graph

Daily Weather History Graph

Search for Another Location

Airport or City:

Trip Planner

Search our weather history database for the weather conditions in past years. The results will help you decide how hot, cold, wet, or windy it might be!

Date:

Astronomy

Mar. 04, 2013 Rise Set
Actual Time 6:34 AM PST 5:50 PM PST
Civil Twilight 6:04 AM PST 6:21 PM PST
Nautical Twilight 5:28 AM PST 6:57 PM PST
Astronomical Twilight 4:52 AM PST 7:32 PM PST
Moon 1:07 AM PST (3/4) 10:19 AM PST (3/4)
Length of Visible Light 12h 17m
Length of Day
11h 16m
Waning Gibbous, 51% of the Moon is Illuminated
Mar 4
Waning Gibbous
Mar 4
Last Quarter
Mar 11
New
Mar 19
First Quarter
Mar 27
Full

Hourly Weather History & Observations

Time (PST) Temp. Windchill Dew Point Humidity Pressure Visibility Wind Dir Wind Speed Gust Speed Precip Events Conditions
12:55 AM 35.1 °F 26.9 °F 19.9 °F 54% 30.27 in 10.0 mi NNW 11.5 mph - N/A   Clear
1:55 AM 32.0 °F 26.4 °F 19.0 °F 59% 30.27 in 10.0 mi West 5.8 mph - N/A   Clear
2:55 AM 30.9 °F 27.5 °F 19.0 °F 61% 30.28 in 10.0 mi NNW 3.5 mph - N/A   Clear
3:55 AM 30.9 °F 25.2 °F 19.0 °F 61% 30.28 in 10.0 mi NW 5.8 mph - N/A   Clear
4:55 AM 28.9 °F 25.2 °F 19.0 °F 67% 30.30 in 10.0 mi WNW 3.5 mph - N/A   Clear
5:55 AM 28.9 °F 22.8 °F 19.0 °F 67% 30.30 in 10.0 mi NNW 5.8 mph - N/A   Clear
6:55 AM 28.9 °F 21.9 °F 19.0 °F 67% 30.31 in 10.0 mi NNW 6.9 mph - N/A   Clear
7:55 AM 32.0 °F 24.8 °F 19.9 °F 61% 30.31 in 10.0 mi West 8.1 mph - N/A   Clear
8:55 AM 33.1 °F 26.1 °F 19.9 °F 59% 30.31 in 10.0 mi WNW 8.1 mph - N/A   Clear
9:55 AM 37.0 °F 32.4 °F 19.9 °F 50% 30.30 in 10.0 mi West 5.8 mph - N/A   Clear
10:55 AM 37.9 °F 34.4 °F 21.0 °F 51% 30.28 in 10.0 mi SW 4.6 mph - N/A   Clear
11:55 AM 41.0 °F - 21.0 °F 45% 30.26 in 10.0 mi Calm Calm - N/A   Clear
1:55 PM 46.9 °F - 18.0 °F 32% 30.19 in 10.0 mi SE 6.9 mph - N/A   Clear
2:55 PM 46.9 °F - 15.1 °F 28% 30.17 in 10.0 mi SSE 11.5 mph 18.4 mph N/A   Clear
3:55 PM 46.9 °F - 16.0 °F 29% 30.15 in 10.0 mi SE 9.2 mph - N/A   Clear
4:55 PM 45.0 °F 41.8 °F 17.1 °F 33% 30.13 in 10.0 mi SE 5.8 mph - N/A   Clear
5:55 PM 43.0 °F 40.3 °F 18.0 °F 37% 30.13 in 10.0 mi East 4.6 mph - N/A   Scattered Clouds
6:55 PM 41.0 °F 38.0 °F 17.1 °F 38% 30.13 in 10.0 mi ESE 4.6 mph - N/A   Mostly Cloudy
7:55 PM 41.0 °F 39.0 °F 17.1 °F 38% 30.12 in 10.0 mi SE 3.5 mph - N/A   Clear
8:55 PM 37.9 °F - 18.0 °F 45% 30.10 in 10.0 mi Calm Calm - N/A   Clear
9:55 PM 37.0 °F 34.5 °F 17.1 °F 44% 30.09 in 10.0 mi NW 3.5 mph - N/A   Clear
11:55 PM 35.1 °F 32.2 °F 18.0 °F 50% 30.07 in 10.0 mi West 3.5 mph - N/A   Clear